Palma de Mallorca, Spain

10:33 AM CEST on May 22, 2018 (GMT +0200)
Palma De Mallorca

Weather History for LEPA - March, 2013

Change the Weather History Date:

Wednesday, March 6, 2013

  Actual Average Record
Temperature  
Mean Temperature 58 °F -  
Max Temperature 62 °F 63 °F 71 °F (2017)
Min Temperature 54 °F 42 °F 33 °F (1999)
Degree Days  
Heating Degree Days 7    
Growing Degree Days 8 (Base 50)    
Moisture  
Dew Point 55 °F    
Average Humidity 85    
Maximum Humidity 94    
Minimum Humidity 71    
Precipitation  
Precipitation 0.00 in 0.05 in - ()
Sea Level Pressure  
Sea Level Pressure 29.42 in    
Wind  
Wind Speed 14 mph ()    
Max Wind Speed 28 mph    
Max Gust Speed 41 mph    
Visibility 6.5 miles    
Events Rain    
Averages and records for this station are not official NWS values.
T = Trace of Precipitation, MM = Missing Value Source: Averaged Metar Reports

Daily Weather History Graph

Daily Weather History Graph

Search for Another Location

Airport or City:

Astronomy

Mar. 06, 2013 Rise Set
Actual Time 7:14 AM CET 6:46 PM CET
Civil Twilight 6:47 AM CET 7:13 PM CET
Nautical Twilight 6:16 AM CET 7:44 PM CET
Astronomical Twilight 5:45 AM CET 8:16 PM CET
Moon 3:08 AM CET (3/6) 1:13 PM CET (3/6)
Length of Visible Light 12h 25m
Length of Day
11h 32m
Waning Crescent, 33% of the Moon is Illuminated
Mar 6
Waning Crescent
Mar 11
New
Mar 19
First Quarter
Mar 27
Full
Apr 3
Last Quarter

Hourly Weather History & Observations

Time (CET) Temp. Dew Point Humidity Pressure Visibility Wind Dir Wind Speed Gust Speed Precip Events Conditions
12:00 AM 59.0 °F 55.4 °F 88% 29.33 in 5.0 mi SE 3.5 mph - N/A   Mostly Cloudy
12:30 AM 59.0 °F 55.4 °F 88% 29.30 in 5.6 mi South 9.2 mph - N/A   Mostly Cloudy
1:00 AM 58 °F 54 °F 80% 29.31 in 6 mi South 13.8 mph - - Rain Light Rain
1:00 AM 59.0 °F 57.2 °F 94% 29.30 in 5.6 mi South 11.5 mph - N/A Rain Light Rain
1:30 AM 59.0 °F 55.4 °F 88% 29.30 in 5.6 mi South 13.8 mph 25.3 mph N/A Rain Light Rain
2:00 AM 57.2 °F 55.4 °F 94% 29.30 in 5.6 mi South 13.8 mph - N/A   Mostly Cloudy
2:30 AM 57.2 °F 55.4 °F 94% 29.30 in 5.6 mi SSW 13.8 mph - N/A   Mostly Cloudy
3:00 AM 57.2 °F 55.4 °F 94% 29.30 in 5.6 mi SW 19.6 mph - N/A   Mostly Cloudy
3:30 AM 57.2 °F 55.4 °F 94% 29.30 in 5.6 mi SW 19.6 mph 32.2 mph N/A   Mostly Cloudy
4:00 AM 57.2 °F 55.4 °F 94% 29.30 in 5.6 mi WSW 23.0 mph 34.5 mph N/A   Mostly Cloudy
4:30 AM 57.2 °F 53.6 °F 88% 29.30 in 6.2 mi WSW 26.5 mph - N/A   Mostly Cloudy
5:00 AM 57.2 °F 53.6 °F 88% 29.30 in 6.2 mi WSW 26.5 mph - N/A   Mostly Cloudy
5:30 AM 57.2 °F 53.6 °F 88% 29.30 in 6.2 mi WSW 26.5 mph 39.1 mph N/A   Mostly Cloudy
6:00 AM 57.2 °F 53.6 °F 88% 29.30 in 6.2 mi WSW 26.5 mph 39.1 mph N/A   Mostly Cloudy
6:30 AM 57.2 °F 51.8 °F 82% 29.33 in 6.2 mi WSW 27.6 mph 41.4 mph N/A   Mostly Cloudy
7:00 AM 56 °F 49 °F 71% 29.33 in 7 mi WSW 23.0 mph - -   Partly Cloudy
7:00 AM 59.0 °F 51.8 °F 77% 29.33 in 6.2 mi WSW 24.2 mph 36.8 mph N/A   Mostly Cloudy
7:30 AM 57.2 °F 51.8 °F 82% 29.36 in 6.2 mi WSW 18.4 mph - N/A   Scattered Clouds
8:00 AM 57.2 °F 53.6 °F 88% 29.36 in 5.6 mi WSW 15.0 mph - N/A   Scattered Clouds
8:30 AM 57.2 °F 53.6 °F 88% 29.39 in 6.2 mi WSW 16.1 mph - N/A   Scattered Clouds
9:00 AM 57.2 °F 53.6 °F 88% 29.39 in 6.2 mi WSW 13.8 mph - N/A   Scattered Clouds
9:30 AM 59.0 °F 55.4 °F 88% 29.42 in 6.2 mi WSW 13.8 mph - N/A   Partly Cloudy
10:00 AM 59.0 °F 55.4 °F 88% 29.42 in 6.2 mi SW 15.0 mph - N/A   Partly Cloudy
10:30 AM 60.8 °F 55.4 °F 82% 29.42 in 6.2 mi SW 17.3 mph - N/A   Partly Cloudy
11:00 AM 60.8 °F 55.4 °F 82% 29.42 in 6.2 mi SW 17.3 mph - N/A   Partly Cloudy
11:30 AM 60.8 °F 55.4 °F 82% 29.44 in 6.2 mi SW 17.3 mph - N/A   Partly Cloudy
12:00 PM 62.6 °F 55.4 °F 77% 29.44 in 6.2 mi SW 16.1 mph - N/A   Partly Cloudy
12:30 PM 60.8 °F 55.4 °F 82% 29.44 in 6.2 mi SW 17.3 mph - N/A   Partly Cloudy
1:00 PM 62 °F 55 °F 72% 29.46 in 19 mi SW 23.0 mph - -   Scattered Clouds
1:00 PM 62.6 °F 55.4 °F 77% 29.44 in 6.2 mi SW 17.3 mph - N/A   Partly Cloudy
1:30 PM 62.6 °F 55.4 °F 77% 29.44 in 6.2 mi WSW 18.4 mph - N/A   Partly Cloudy
2:00 PM 62.6 °F 57.2 °F 82% 29.44 in 6.2 mi WSW 18.4 mph 29.9 mph N/A   Partly Cloudy
2:30 PM 62.6 °F 55.4 °F 77% 29.44 in 6.2 mi WSW 18.4 mph - N/A   Partly Cloudy
3:00 PM 62.6 °F 55.4 °F 77% 29.44 in 6.2 mi WSW 17.3 mph - N/A   Partly Cloudy
3:30 PM 62.6 °F 55.4 °F 77% 29.47 in 6.2 mi WSW 17.3 mph - N/A   Partly Cloudy
4:00 PM 62.6 °F 55.4 °F 77% 29.47 in 6.2 mi WSW 17.3 mph - N/A   Partly Cloudy
4:30 PM 60.8 °F 55.4 °F 82% 29.47 in 6.2 mi WSW 16.1 mph - N/A   Partly Cloudy
5:00 PM 60.8 °F 55.4 °F 82% 29.47 in 6.2 mi WSW 15.0 mph - N/A   Partly Cloudy
5:30 PM 60.8 °F 55.4 °F 82% 29.47 in 6.2 mi WSW 12.7 mph - N/A   Partly Cloudy
6:00 PM 59.0 °F 55.4 °F 88% 29.47 in 6.2 mi SW 9.2 mph - N/A   Partly Cloudy
6:30 PM 59.0 °F 53.6 °F 82% 29.50 in 6.2 mi SW 10.4 mph - N/A   Partly Cloudy
7:00 PM 57 °F 51 °F 74% 29.55 in 16 mi WSW 10.4 mph - -   Scattered Clouds
7:00 PM 57.2 °F 53.6 °F 88% 29.50 in 6.2 mi SW 10.4 mph - N/A   Partly Cloudy
7:30 PM 57.2 °F 55.4 °F 94% 29.53 in 6.2 mi SSW 6.9 mph - N/A   Scattered Clouds
8:00 PM 57.2 °F 55.4 °F 94% 29.53 in 6.2 mi SW 6.9 mph - N/A   Scattered Clouds
8:30 PM 59.0 °F 55.4 °F 88% 29.53 in 6.2 mi SSW 3.5 mph - N/A   Scattered Clouds
9:00 PM 59.0 °F 55.4 °F 88% 29.56 in 6.2 mi SSW 4.6 mph - N/A   Partly Cloudy
9:30 PM 57.2 °F 55.4 °F 94% 29.56 in 6.2 mi SSW 4.6 mph - N/A   Scattered Clouds
10:00 PM 57.2 °F 55.4 °F 94% 29.56 in 6.2 mi SSW 2.3 mph - N/A   Partly Cloudy
10:30 PM 57.2 °F 55.4 °F 94% 29.59 in 6.2 mi South 3.5 mph - N/A   Partly Cloudy
11:00 PM 57.2 °F 53.6 °F 88% 29.59 in 6.2 mi South 3.5 mph - N/A   Partly Cloudy
11:30 PM 57.2 °F 55.4 °F 94% 29.59 in 6.2 mi South 5.8 mph - N/A   Partly Cloudy